Regional Weather Roundup
Issued by NWS Northern Indiana

Home | Current Version | Previous Version | Text Only | Print | Product List | Glossary Off
Versions: 1 2 3 4 5 6 7 8 9 10 11 12 13 14 15 16 17 18 19 20 21 22 23 24 25 26 27 28 29 30 31 32 33 34 35 36 37 38 39 40 41 42 43 44 45 46 47 48 49 50

000
ASUS43 KIWX 241510
RWRIWX

KIWX WEATHER ROUNDUP
NATIONAL WEATHER SERVICE NORTHERN INDIANA
1100 AM EDT THU MAY 24 2018

NOTE: "FAIR" INDICATES FEW OR NO CLOUDS BELOW 12,000 FEET WITH NO
SIGNIFICANT WEATHER AND/OR OBSTRUCTIONS TO VISIBILITY.

* THESE STATIONS ARE NOT UNDER NWS QUALITY CONTROL. THEY ALSO MAY NOT
  REPORT WEATHER SUCH AS PRECIPITATION OR FOG.

INZ001>027-241600-
NORTHERN INDIANA

CITY           SKY/WX    TMP DP  RH WIND       PRES   REMARKS
LAPORTE*       FAIR      75  56  52 S8        30.23F
KNOX*          FAIR      75  54  46 SW5       30.22F
SOUTH BEND     FAIR      76  54  46 S9        30.23F
ELKHART*       FAIR      77  52  41 S7        30.24F
GOSHEN         FAIR      75  54  47 S7        30.24F
ROCHESTER*     FAIR      77  50  38 SE5       30.24F
WARSAW*        FAIR      73  54  49 CALM      30.24F
AUBURN*        FAIR      73  50  43 CALM      30.26S
FORT WAYNE     FAIR      75  52  44 SE6       30.25F
PERU/GRISSOM   FAIR      75  53  45 SE6       30.22F
MARION*        FAIR      73  53  50 CALM      30.24F

$$
INZ028>050-241600-
CENTRAL INDIANA

CITY           SKY/WX    TMP DP  RH WIND       PRES   REMARKS
LAFAYETTE      FAIR      77  51  40 VRB5      30.21F
KOKOMO*        FAIR      74  57  55 S10       30.24F
MUNCIE*        FAIR      77  52  41 VRB6      30.23F
INDIANAPOLIS   FAIR      75  55  49 SE8       30.21F

$$
MIZ043>046-050>051-056>058-064>065-071>073-077>080-241600-
SOUTHWEST LOWER MICHIGAN

CITY           SKY/WX    TMP DP  RH WIND       PRES   REMARKS
BATTLE CREEK   FAIR      75  56  51 SW6       30.25S
BENTON HARBOR  FAIR      77  56  48 SW6       30.22F
COLDWATER*     FAIR      73  50  43 CALM      30.25S
HILLSDALE*     FAIR      75  46  35 SW3       30.26R
HOLLAND        FAIR      76  55  48 SW12      30.23S
GRAND RAPIDS   PTSUNNY   76  56  49 SW8       30.23S
KALAMAZOO      FAIR      76  56  49 S8        30.24S
STURGIS*       FAIR      74  54  50 S5        30.24F
THREE RIVERS*  FAIR      74  55  51 SW6       30.25S

$$
OHZ001>008-015>018-024>025-241600-
NORTHWEST OHIO

CITY           SKY/WX    TMP DP  RH WIND       PRES   REMARKS
DEFIANCE       FAIR      74  52  46 S5        30.25S
FINDLAY        FAIR      77  48  35 CALM      30.24S
TOLEDO EXPRESS FAIR      77  53  43 CALM      30.24S
TOLEDO METCALF FAIR      76  51  41 VRB3      30.24F
LIMA           FAIR      75  49  39 SE7       30.25S

$$
AND FOR LAKE MICHIGAN COASTAL AND OPEN LAKE BUOY OBSERVATIONS

STATION/POSITION TEMP    WIND        PRES    VSBY  WAVE
                 AIR SEA DIR/SP/G                  HT/PER
                 (F)     (DEG/KT/KT) (MB)    (MI)  (FT/S)
CALUMET HARBOR    76     170/  8/ 12 1022.0F
MICHIGAN CITY     72     180/ 11/ 13   N/A
BURNS HARBOR      74     180/ 12/ 15 1023.0
SAINT JOSEPH      66     200/  4/  6 1023.7
SOUTH LAKE BUOY   50 40  140/  6/  6 1023.3F         0
4 MI NW BRIDGMAN  65 56  170/  2/  2 1023.2          0
MICHIGAN CITY     68 59  140/  2/  2   N/A           0

$$
&&




USA.gov is the U.S. government's official web portal to all federal, state and local government web resources and services.